Tracking 19909 objects as of 21-Oct-2019
HD Live streaming from Space Station
objects crossing your sky now

SL-8 DEB

Track SL-8 DEB now!
10-day predictions


NORAD ID: 39702
Int'l Code: 1991-009DR
Perigee: 1,473.6 km
Apogee: 1,772.1 km
Inclination: 74.2 °
Period: 118.5 minutes
Semi major axis: 7993 km
RCS: 0.0183 m2 (small)
Launch date: February 12, 1991
Source: Commonwealth of Independent States (former USSR) (CIS)
Launch site: PLESETSK MISSILE AND SPACE COMPLEX (PKMTR)

Note: This is SATELLITE DEBRIS
aabbcc
Your satellite tracking list
Your tracking list is empty




NASA's NSSDC Master Catalog

Two Line Element Set (TLE):
1 39702U 91009DR  19294.30684895 -.00000129  00000-0 -11365-2 0  9990
2 39702  74.2310 280.9915 0186716  81.2419 280.9709 12.14698853262325
Source of the keplerian elements: AFSPC